Brasstown, NC

12:39 PM EST on February 13, 2016 (GMT -0500)
Elevation 1780 | | Change Station
CLOSE
Current Station
Personal Weather Station
Location: Brasstown, NC
Elevation: 1780 ft
Nearby Weather Stations

Elev 1780 ft 35.02 °N, 83.97 °W | Updated 11 minutes ago

Clear
Clear
29.3 °F
Feels Like 29 °F
N
1.0
Wind Variable Wind from NW
Gusts 8.0 mph

Today
High -- | Low -- °F
--% Chance of Precip.
Yesterday
High -- | Low -- °F
Precip. -- in
Pressure 30.34 in
Visibility 10.0 miles
Clouds Clear
Windchill 29 °F
Dew Point 11 °F
Humidity 47%
Rainfall 0.00 in
Snow Depth Not available.
7:24 AM 6:16 PM
Waxing Crescent, 32% visible
METAR KRHP 131715Z AUTO 04009G17KT 10SM CLR M01/M16 A3034 RMK AO2 T10101159
Pressure 30.34 in
Visibility 10.0 miles
Clouds Clear
Windchill 29 °F
Dew Point 11 °F
Humidity 47%
Rainfall 0.00 in
Snow Depth Not available.
7:24 AM 6:16 PM
Waxing Crescent, 32% visible
METAR KRHP 131715Z AUTO 04009G17KT 10SM CLR M01/M16 A3034 RMK AO2 T10101159

10-Day Weather Forecast

Almanac

Astronomy

Feb. 13, 2016 Rise Set
Actual Time
Civil Twilight
Nautical Twilight
Astronomical Twilight
Moon
Length of Visible Light
Length of Day
Tomorrow will be .
, % of the Moon is Illuminated

Today's Extremes

State Highs State Lows

Community

WunderPhotos

Upload Photos

1,892,622 photos uploaded!

WunderBlog® & News

Nearby

Air Quality

  Air Quality AQ Index Pollutant
Not available.

Snow Depth

Station Depth Elevation

Earthquake Activity

City Distance Mag. Time & Date
Minimum magnitude displayed is 2.5.

Coastal Water Temperatures

Place Temperature

Stations

Nearby Weather Stations

Station Location Temp. Windchill Dew Point Humidity Wind Precip. Elev Updated Type
                   

Watches & Warnings

There are currently no watches in effect.